Tracking 29892 objects as of 21-Nov-2024
HD Live streaming from Space Station
objects crossing your sky now

ONEWEB-0109

Track ONEWEB-0109 now!
10-day predictions
ONEWEB-0109 is classified as:


NORAD ID: 47259
Int'l Code: 2020-100B
Perigee: 1,219.8 km
Apogee: 1,221.9 km
Inclination: 87.9 °
Period: 109.7 minutes
Semi major axis: 7591 km
RCS: Unknown
Launch date: December 18, 2020
Source: United Kingdom (UK)
Launch site: VOSTOCHNY COSMODROME (VOSTO)
Your satellite tracking list
Your tracking list is empty




NASA's NSSDC Master Catalog

Two Line Element Set (TLE):
1 47259U 20100B   24325.83941236  .00000398  00000-0  10698-2 0  9998
2 47259  87.8863 104.8249 0001402  96.6746 263.4542 13.12443185189356
Source of the keplerian elements: AFSPC